Time,TemperatureF,DewpointF,PressureIn,WindDirection,WindDirectionDegrees,WindSpeedMPH,WindSpeedGustMPH,Humidity,HourlyPrecipIn,Conditions,Clouds,dailyrainin,SoftwareType,DateUTC
2013-06-18 00:02:00,64.0,56.0,-100.00,WNW,282,12.0,15.0,75,-99.99,,,-99.99,,2013-06-18 07:02:00,
2013-06-18 00:12:00,64.0,56.0,-100.00,WNW,282,12.0,15.0,75,-99.99,,,-99.99,,2013-06-18 07:12:00,
2013-06-18 01:01:00,64.0,57.0,-100.00,WNW,292,3.0,6.0,77,-99.99,,,-99.99,,2013-06-18 08:01:00,
2013-06-18 01:11:00,64.0,57.0,-100.00,WNW,292,3.0,6.0,77,-99.99,,,-99.99,,2013-06-18 08:11:00,
2013-06-18 02:01:00,65.0,56.0,-100.00,WNW,292,7.0,12.0,72,-99.99,,,-99.99,,2013-06-18 09:01:00,
2013-06-18 02:12:00,65.0,56.0,-100.00,WNW,292,7.0,12.0,72,-99.99,,,-99.99,,2013-06-18 09:12:00,
2013-06-18 03:02:00,64.0,56.0,-100.00,West,271,12.0,17.0,75,-99.99,,,-99.99,,2013-06-18 10:02:00,
2013-06-18 03:11:00,64.0,56.0,-100.00,West,271,12.0,17.0,75,-99.99,,,-99.99,,2013-06-18 10:11:00,
2013-06-18 04:02:00,61.0,54.0,-100.00,West,259,14.0,20.0,77,-99.99,,,-99.99,,2013-06-18 11:02:00,
2013-06-18 04:11:00,61.0,54.0,-100.00,West,259,14.0,20.0,77,-99.99,,,-99.99,,2013-06-18 11:11:00,
2013-06-18 05:01:00,59.0,54.0,-100.00,WSW,256,8.0,12.0,83,-99.99,,,-99.99,,2013-06-18 12:01:00,
2013-06-18 05:11:00,59.0,54.0,-100.00,WSW,256,8.0,12.0,83,-99.99,,,-99.99,,2013-06-18 12:11:00,
2013-06-18 06:02:00,58.0,55.0,-100.00,South,185,5.0,9.0,89,-99.99,,,-99.99,,2013-06-18 13:02:00,
2013-06-18 06:11:00,58.0,55.0,-100.00,South,185,5.0,9.0,89,-99.99,,,-99.99,,2013-06-18 13:11:00,
2013-06-18 07:02:00,58.0,56.0,-100.00,SE,137,9.0,13.0,93,-99.99,,,-99.99,,2013-06-18 14:02:00,
2013-06-18 07:11:00,58.0,56.0,-100.00,SE,137,9.0,13.0,93,-99.99,,,-99.99,,2013-06-18 14:11:00,
2013-06-18 08:02:00,58.0,56.0,-100.00,SSE,153,7.0,10.0,93,-99.99,,,-99.99,,2013-06-18 15:02:00,
2013-06-18 08:11:00,58.0,56.0,-100.00,SSE,153,7.0,10.0,93,-99.99,,,-99.99,,2013-06-18 15:11:00,
2013-06-18 09:01:00,58.0,57.0,-100.00,NE,35,3.0,5.0,96,-99.99,,,-99.99,,2013-06-18 16:01:00,
2013-06-18 09:11:00,58.0,57.0,-100.00,NE,35,3.0,5.0,96,-99.99,,,-99.99,,2013-06-18 16:11:00,
2013-06-18 10:02:00,59.0,57.0,-100.00,South,181,2.0,3.0,93,-99.99,,,-99.99,,2013-06-18 17:02:00,
2013-06-18 10:11:00,59.0,57.0,-100.00,South,181,2.0,3.0,93,-99.99,,,-99.99,,2013-06-18 17:11:00,
2013-06-18 11:01:00,58.0,56.0,-100.00,WNW,296,8.0,13.0,93,-99.99,,,-99.99,,2013-06-18 18:01:00,
2013-06-18 11:11:00,58.0,56.0,-100.00,WNW,296,8.0,13.0,93,-99.99,,,-99.99,,2013-06-18 18:11:00,
2013-06-18 12:01:00,58.0,54.0,-100.00,NW,312,5.0,6.0,86,-99.99,,,-99.99,,2013-06-18 19:01:00,
2013-06-18 12:11:00,58.0,54.0,-100.00,NW,312,5.0,6.0,86,-99.99,,,-99.99,,2013-06-18 19:11:00,
2013-06-18 13:01:00,57.0,55.0,-100.00,WNW,302,3.0,3.0,93,-99.99,,,-99.99,,2013-06-18 20:01:00,
2013-06-18 13:11:00,57.0,55.0,-100.00,WNW,302,3.0,3.0,93,-99.99,,,-99.99,,2013-06-18 20:11:00,
2013-06-18 14:01:00,57.0,55.0,-100.00,NE,54,3.0,5.0,93,-99.99,,,-99.99,,2013-06-18 21:01:00,
2013-06-18 14:11:00,57.0,55.0,-100.00,NE,54,3.0,5.0,93,-99.99,,,-99.99,,2013-06-18 21:11:00,
2013-06-18 15:01:00,58.0,56.0,-100.00,ENE,77,5.0,7.0,93,-99.99,,,-99.99,,2013-06-18 22:01:00,
2013-06-18 15:11:00,58.0,56.0,-100.00,ENE,77,5.0,7.0,93,-99.99,,,-99.99,,2013-06-18 22:11:00,
2013-06-18 16:01:00,59.0,55.0,-100.00,ESE,116,3.0,9.0,86,-99.99,,,-99.99,,2013-06-18 23:01:00,
2013-06-18 16:11:00,59.0,55.0,-100.00,ESE,116,3.0,9.0,86,-99.99,,,-99.99,,2013-06-18 23:11:00,
2013-06-18 17:11:00,59.0,56.0,-100.00,ESE,114,8.0,12.0,89,-99.99,,,-99.99,,2013-06-19 00:11:00,
2013-06-18 18:01:00,60.0,56.0,-100.00,SE,146,7.0,10.0,86,-99.99,,,-99.99,,2013-06-19 01:01:00,
2013-06-18 18:11:00,60.0,56.0,-100.00,SE,146,7.0,10.0,86,-99.99,,,-99.99,,2013-06-19 01:11:00,
2013-06-18 19:01:00,61.0,55.0,-100.00,ESE,108,6.0,10.0,80,-99.99,,,-99.99,,2013-06-19 02:01:00,
2013-06-18 19:11:00,61.0,55.0,-100.00,ESE,108,6.0,10.0,80,-99.99,,,-99.99,,2013-06-19 02:11:00,
2013-06-18 20:01:00,61.0,54.0,-100.00,SSE,152,3.0,6.0,77,-99.99,,,-99.99,,2013-06-19 03:01:00,
2013-06-18 20:11:00,61.0,54.0,-100.00,SSE,152,3.0,6.0,77,-99.99,,,-99.99,,2013-06-19 03:11:00,
2013-06-18 21:01:00,60.0,57.0,-100.00,NNW,348,7.0,9.0,89,-99.99,,,-99.99,,2013-06-19 04:01:00,
2013-06-18 21:11:00,60.0,57.0,-100.00,NNW,348,7.0,9.0,89,-99.99,,,-99.99,,2013-06-19 04:11:00,
2013-06-18 22:01:00,59.0,56.0,-100.00,NNW,327,6.0,8.0,89,-99.99,,,-99.99,,2013-06-19 05:01:00,
2013-06-18 22:11:00,59.0,56.0,-100.00,NNW,327,6.0,8.0,89,-99.99,,,-99.99,,2013-06-19 05:11:00,
2013-06-18 23:01:00,59.0,56.0,-100.00,NW,315,2.0,3.0,89,-99.99,,,-99.99,,2013-06-19 06:01:00,
2013-06-18 23:11:00,59.0,56.0,-100.00,NW,315,2.0,3.0,89,-99.99,,,-99.99,,2013-06-19 06:11:00,